Temp
7 8 9 9 10 10 10 10 10 10 10 10 11 11 12 13 14 14 12 13 14 7 9 11 13 11 10 9 8 9 9 6 6 7 6 5 3 7 8 10 8 9 7 6 6 8 8 10 12 12 11 10 11 10
7 7 8 9 9 10 10 10 10 10 10 10 11 11 11 12 13 14 13 13 13 12 10 11 13 13 14 13 9 8 10 8 7 7 6 4 5 3 6 9 10 10 10 10 10 8 10 11 12 11 11 10 9 9
6 7 7 8 9 10 10 10 10 10 10 10 10 11 11 11 12 13 12 12 13 4 8 10 11 13 14 14 14 9 4 9 7 7 4 5 7 5 9 8 9 10 10 9 10 11 11 11 11 11 10 9 8 7
7 6 7 7 9 9 10 10 10 10 10 10 10 10 10 11 11 12 12 12 13 6 5 8 11 12 13 13 13 14 12 9 7 5 5 6 8 9 8 10 9 9 10 9 10 11 11 10 10 9 8 6 5 5
6 7 7 7 7 9 9 10 10 10 10 10 10 10 10 10 10 11 11 11 12 11 6 6 10 12 12 13 13 12 11 8 7 6 6 7 5 7 6 6 8 9 10 10 10 12 11 10 7 6 5 3 4 6
5 7 6 6 7 8 9 10 10 10 10 10 10 10 10 10 10 10 8 11 11 11 6 8 8 8 9 10 10 10 9 8 7 7 6 6 8 8 7 8 11 11 11 12 11 11 7 6 4 4 4 5 5 6
5 6 6 5 6 7 8 9 10 9 9 10 10 10 10 10 9 9 8 10 9 10 5 6 7 4 7 7 6 7 8 8 8 6 5 6 7 8 6 10 12 11 11 10 10 7 6 6 5 5 5 6 5 6
5 6 6 6 6 6 6 7 9 9 9 9 9 9 9 9 8 8 8 9 9 9 6 6 6 6 7 3 4 4 4 4 5 6 4 5 6 5 8 9 9 9 10 7 5 5 5 5 5 5 6 6 4 4
5 5 6 5 6 6 7 7 7 8 8 9 8 8 7 7 6 6 7 8 8 8 5 4 7 8 6 5 3 3 3 6 3 5 5 6 6 8 6 6 5 5 6 3 3 4 4 5 5 5 4 4 3 2
4 4 5 5 6 6 7 7 6 6 7 6 6 6 3 5 6 6 6 4 3 2 2 5 4 7 6 4 4 5 3 5 7 5 4 5 6 6 4 5 4 4 4 4 3 3 4 3 4 4 3 2 1 1
4 4 4 5 4 5 6 5 6 6 6 6 3 2 4 4 6 3 4 4 3 5 3 3 3 5 4 6 6 3 6 5 5 3 5 6 5 4 4 3 3 4 5 5 6 5 5 3 2 2 2 2 2 2
4 4 4 4 5 4 5 5 5 6 6 6 5 5 5 3 3 5 5 3 4 5 3 4 4 4 3 3 5 3 5 4 4 1 3 2 3 3 3 4 5 5 5 5 5 4 3 3 3 2 1 1 1 2
4 4 4 4 5 5 5 5 5 6 6 6 5 3 3 2 5 5 4 4 4 3 3 3 4 3 3 3 3 4 4 2 2 2 2 2 3 5 4 4 4 5 4 3 3 3 3 2 3 2 0 1 1 -1
4 4 5 4 4 5 5 5 5 6 7 2 2 4 3 3 2 1 1 2 1 3 3 3 2 3 1 2 2 3 1 2 3 1 1 0 4 5 4 3 2 2 2 0 1 2 1 1 0 1 0 0 -1 -2
4 4 4 4 4 4 5 5 5 7 4 0 0 2 0 -0 1 2 2 2 2 2 2 2 1 -0 1 -1 2 1 2 3 1 0 -2 1 3 3 2 3 2 -1 -1 -1 1 0 0 0 -1 -1 0 -0 -1 -1
4 4 4 4 4 4 5 5 6 5 0 -2 -3 -1 -0 2 1 1 2 2 1 1 -0 -0 -3 -3 -1 -1 1 2 0 -1 -1 -4 -1 1 2 2 2 1 1 2 1 0 0 0 0 0 -1 -1 -1 -1 -1 -1
4 3 3 3 4 4 5 5 5 -2 -2 -3 -3 -2 -3 -3 -2 -4 2 2 1 1 2 -5 -2 -0 -3 -4 -2 -2 -3 -3 -3 -3 -3 0 2 1 1 1 1 1 0 0 0 0 0 0 -1 -2 -3 -1 -1 -1
4 3 3 3 4 4 4 3 -1 -2 -0 -3 -2 -5 -1 -4 -3 -4 -2 -3 -1 -3 -3 -1 -2 -4 -5 -4 -5 -4 -4 -4 -4 -3 -2 -1 1 1 1 -0 1 1 0 0 1 0 -1 -1 -2 -1 -2 -2 -2 -1
3 3 3 3 4 3 -0 0 1 -1 -2 -4 -4 -4 -5 -6 -5 -3 -4 -1 1 1 -1 -3 -7 -4 -4 -4 -5 -7 -8 -6 -2 -0 -1 1 1 1 1 1 1 0 0 0 -0 -1 -1 -1 -2 -1 -1 -2 -2 -1
2 2 2 3 4 2 -3 -1 -0 -1 -1 -2 -4 -4 -5 -4 -4 -3 -4 -6 -3 -2 0 0 -3 -4 -3 -3 -3 -3 -3 -2 -4 -3 -1 -2 1 1 1 1 -0 0 -0 -1 -1 -1 -2 -2 -1 -2 -1 -2 -1 -1
1 1 1 3 2 2 -3 -5 -4 -3 -2 -2 -4 -4 -5 -5 -3 -3 -5 -3 -3 -3 -2 -1 -3 -2 0 0 1 1 -0 -1 -2 -3 -2 -1 1 1 0 -0 -0 -0 -2 -3 -4 -3 -2 -1 -2 -2 -2 -1 -1 -1
0 1 1 2 -1 -2 -4 -3 -3 -4 -4 -4 -5 -5 -8 -7 -6 -3 -5 -0 0 -2 -1 -1 1 -0 -1 -1 0 1 1 1 0 -0 -1 -1 -3 -2 -2 0 -1 -2 -2 -2 -2 -3 -2 -1 -2 -2 -2 -2 -2 -2
2 2 -0 -1 -5 -7 -5 -3 -5 -3 -4 -5 -7 -5 -7 -9 -7 -4 -1 -0 -2 -2 0 0 2 2 1 1 1 1 1 0 -1 -1 -1 -1 -1 -0 -0 -0 -1 -4 -4 -2 -2 -2 -2 -2 -3 -2 -2 -2 -2 -2
2 -0 -6 -6 -8 -5 -8 -1 -5 -6 -9 -7 -7 -6 -6 -8 -7 -3 -4 -6 -3 -2 -2 0 0 -2 -1 -1 -2 -1 0 0 0 0 1 -1 -3 -1 2 0 -0 -1 -1 -2 -2 -3 -3 -3 -2 -2 -3 -3 -2 -2
-2 -3 -6 -3 -3 -4 -4 -1 -3 -6 -6 -11 -7 -9 -8 -10 -7 -8 -7 -4 -7 -7 -4 -2 -2 -2 -3 -4 -3 0 2 1 0 -3 4 3 1 -1 -1 -1 -1 -1 -1 -2 -3 -3 -3 -3 -3 -3 -3 -3 -3 -3
-6 -4 -6 -8 -2 -6 -8 -8 -5 -6 -11 -10 -7 -10 -14 -11 -7 -4 -4 -5 -8 -6 -9 -7 -6 -7 -5 -3 -4 -1 4 4 1 -2 1 1 0 -2 -3 -2 -2 -2 -2 -3 -3 -4 -4 -4 -4 -4 -3 -3 -3 -3
-6 -3 -2 -4 -4 -6 -9 -12 -9 -10 -10 -7 -9 -10 -10 -6 -6 -4 -5 -4 -4 4 5 5 3 1 -0 3 3 3 2 1 1 1 -1 -1 -2 -2 -2 -3 -3 -3 -4 -4 -4 -5 -4 -4 -4 -4 -4 -4 -3 -3
-6 -6 -3 -3 -4 -8 -8 -11 -10 -8 -7 -7 -9 -7 -5 -5 -3 -4 -4 4 4 4 4 4 4 3 2 1 1 0 1 1 -0 -1 -2 -1 -1 -1 -3 -4 -4 -4 -4 -5 -5 -5 -4 -5 -5 -5 -5 -5 -5 -4
-2 -5 -7 -5 -8 -9 -7 -5 -6 -6 -4 -4 -4 -6 -5 -5 -4 -2 1 -0 -0 0 -0 -1 -0 -1 -1 -1 -1 -1 -2 -2 -3 -4 -6 -8 -5 -4 -4 -4 -5 -5 -5 -6 -5 -5 -5 -4 -5 -5 -5 -5 -5 -6
-4 -8 -7 -10 -7 -5 -5 -4 -7 -8 -8 -5 -7 -5 -4 -4 -5 -7 -6 -6 -7 -6 -5 -4 -4 -4 -4 -4 -4 -4 -5 -5 -5 -5 -7 -9 -7 -6 -6 -6 -5 -5 -6 -6 -5 -5 -5 -5 -5 -5 -5 -6 -6 -7
-12 -11 -8 -9 -8 -8 -8 -10 -8 -10 -13 -10 -9 -4 -1 -6 -10 -11 -11 -10 -10 -9 -9 -10 -9 -8 -8 -8 -8 -7 -7 -7 -7 -7 -7 -7 -8 -8 -7 -7 -7 -7 -6 -7 -7 -6 -6 -6 -7 -7 -9 -9 -10 -10
-6 -10 -9 -9 -8 -10 -15 -13 -14 -13 -11 -12 -4 -12 -12 -11 -10 -11 -12 -12 -12 -12 -12 -12 -12 -11 -10 -9 -9 -9 -9 -9 -9 -9 -9 -9 -9 -9 -9 -8 -8 -8 -7 -8 -8 -8 -8 -8 -9 -10 -12 -12 -13 -13
-16 -18 -19 -15 -11 -10 -14 -11 -12 -12 -15 -16 -15 -15 -16 -12 -12 -12 -12 -13 -13 -13 -13 -13 -12 -11 -10 -10 -10 -10 -10 -10 -10 -10 -10 -10 -10 -10 -10 -10 -9 -9 -9 -9 -9 -10 -10 -11 -12 -13 -14 -14 -15 -15
Height
765 767 771 778 783 787 791 795 799 803 806 808 811 812 813 813 813 814 816 816 818 829 829 827 827 832 837 841 852 848 854 860 867 875 883 888 902 876 873 862 869 867 880 884 883 875 866 826 826 833 824 819 814 814
766 765 768 773 779 784 788 793 798 801 805 808 810 812 814 815 815 815 817 819 820 822 828 827 827 827 828 830 838 846 846 850 854 866 873 882 885 888 875 863 855 861 847 851 852 850 826 822 817 816 814 814 815 815
763 765 766 767 773 780 785 790 795 799 803 806 809 812 814 816 816 817 818 820 822 826 827 827 827 827 828 829 831 843 849 843 847 847 862 868 869 869 860 861 851 842 838 844 838 822 818 813 811 811 813 814 817 816
765 766 765 764 768 774 780 786 792 796 800 804 808 811 813 815 817 818 819 821 823 831 842 833 826 826 826 827 829 831 832 837 841 847 857 860 859 848 850 839 843 841 838 836 829 817 813 813 811 814 814 818 822 822
765 765 763 763 764 769 776 782 788 793 797 802 806 809 812 815 817 819 821 822 824 828 840 836 825 824 824 826 828 830 833 836 842 848 852 851 851 850 845 842 840 833 828 830 817 809 811 809 817 818 823 827 826 822
765 763 763 761 760 763 770 778 784 789 794 798 803 807 811 814 817 820 823 821 822 825 833 836 826 823 822 823 825 828 830 833 836 839 843 838 831 837 838 830 816 815 813 811 809 808 815 818 819 821 825 822 821 820
766 766 765 764 762 762 765 773 779 785 791 795 800 804 808 812 815 817 820 817 819 825 832 836 830 824 823 824 825 827 828 828 831 834 835 833 832 831 834 819 812 811 808 809 809 813 817 818 821 822 822 821 820 817
769 769 766 766 765 765 766 767 774 780 787 792 797 802 807 809 813 814 815 816 819 823 828 833 829 829 824 831 833 831 831 831 830 828 831 831 831 832 821 816 813 811 810 815 818 816 819 822 822 822 821 818 816 814
769 769 768 768 768 768 768 770 772 775 782 787 794 799 803 806 809 810 814 814 819 823 826 828 824 824 826 831 832 833 832 831 833 831 830 829 828 821 827 824 820 818 814 825 824 823 824 825 825 823 819 816 813 810
770 771 771 771 771 772 772 773 775 777 779 786 791 797 806 805 807 811 815 818 818 823 825 824 828 822 826 832 833 834 835 832 829 831 831 828 824 829 830 827 825 824 824 824 825 827 825 822 820 818 817 813 810 805
771 772 773 773 774 773 773 775 777 779 785 787 793 803 807 807 806 814 819 823 826 824 827 827 828 824 826 828 828 835 830 834 833 840 830 825 825 832 832 829 827 825 825 824 824 823 822 821 818 815 810 807 803 800
771 772 775 775 776 776 776 777 780 784 787 789 792 802 806 809 813 814 819 826 824 821 826 825 826 827 830 830 829 835 830 836 835 844 838 841 830 829 830 828 825 825 824 823 822 822 820 818 815 811 807 803 799 796
771 775 777 776 778 780 781 782 783 786 787 790 795 804 809 818 815 813 823 824 824 823 823 825 826 830 830 832 834 834 835 845 841 843 839 833 827 826 827 826 824 823 823 822 822 820 818 814 810 808 804 799 795 790
773 775 777 779 781 782 783 785 787 789 788 794 802 810 815 819 822 826 825 822 823 822 823 825 829 831 834 835 836 836 842 842 839 845 839 835 826 826 826 826 825 823 821 819 818 814 812 811 805 801 798 794 790 784
772 776 780 782 783 784 786 789 789 790 792 803 807 816 821 820 820 820 821 820 823 824 825 828 834 838 839 844 837 843 840 836 840 842 842 831 826 827 827 825 824 820 819 815 813 811 807 804 800 796 790 786 783 778
773 777 781 783 785 785 788 790 792 794 801 809 816 821 819 819 823 824 822 822 824 825 828 831 846 849 845 844 841 838 847 848 842 843 830 826 825 826 824 822 819 816 815 811 808 805 801 798 795 791 785 780 776 773
772 774 780 784 786 787 790 792 794 802 809 815 821 818 821 826 826 829 819 821 823 827 830 846 847 838 847 859 851 843 849 838 832 829 828 825 824 822 819 815 814 811 808 805 802 798 796 793 790 786 780 774 771 767
772 776 781 785 788 789 792 795 800 808 813 819 821 824 820 823 824 825 822 823 825 830 835 835 838 850 857 853 852 837 829 826 824 823 820 819 820 817 814 811 809 806 803 799 797 794 791 788 785 781 776 771 766 761
772 778 783 788 790 791 798 803 804 813 817 817 818 819 821 822 822 823 822 822 823 824 829 836 852 845 836 831 831 831 830 827 821 815 814 813 812 810 808 806 803 800 797 795 792 789 786 783 780 775 771 767 762 757
775 779 784 788 791 794 804 807 806 810 817 815 816 820 821 823 824 824 824 823 825 828 827 825 829 825 822 816 814 815 814 814 815 814 808 805 805 803 802 800 797 795 792 789 787 785 781 777 775 771 767 763 758 753
777 783 787 790 792 795 801 809 814 816 816 815 816 818 824 824 824 825 826 822 827 827 826 816 815 808 805 805 807 807 807 808 808 807 803 799 798 798 796 793 791 790 788 785 782 778 777 774 770 766 762 757 753 750
780 785 789 792 797 803 809 811 812 814 817 819 820 822 831 833 829 823 824 823 819 816 808 803 801 801 802 802 800 800 799 799 798 797 796 795 793 791 789 787 786 783 782 780 777 774 770 768 764 761 757 753 749 745
784 788 793 797 805 811 818 811 818 816 824 825 828 828 833 835 828 823 821 815 811 798 795 796 795 795 795 794 794 793 791 791 791 790 788 787 785 783 782 780 780 779 776 773 772 769 766 762 759 756 753 749 745 742
788 792 800 806 812 819 817 812 818 824 829 831 835 835 831 831 826 824 823 819 799 794 793 791 791 791 791 789 788 785 784 785 784 783 782 782 780 777 775 774 774 774 772 768 766 763 761 758 754 752 749 745 742 740
793 803 807 810 811 817 820 814 820 828 831 844 837 839 830 829 832 835 825 807 798 792 787 785 786 785 787 784 782 780 779 779 779 777 775 775 772 770 769 768 768 767 766 764 761 759 757 754 751 748 744 741 738 735
809 807 814 819 810 822 827 836 825 828 842 840 831 830 836 839 833 819 806 795 792 786 783 782 782 783 782 780 779 777 775 775 774 773 769 770 768 767 765 764 762 761 761 760 758 755 752 749 746 742 739 736 732 730
811 807 804 806 808 813 824 829 826 832 838 829 829 833 834 827 823 801 787 781 780 776 776 775 774 774 774 772 772 771 770 770 768 767 765 765 764 763 762 761 760 759 758 756 754 751 748 744 741 738 734 731 728 725
802 804 803 803 806 810 819 829 828 824 818 811 820 820 813 810 798 784 777 773 773 773 772 772 771 770 769 768 767 766 764 764 763 762 761 761 759 758 757 757 757 756 755 752 750 748 745 742 739 735 732 728 723 719
793 797 802 805 811 813 809 806 807 800 793 797 800 803 795 785 777 774 772 772 771 769 768 767 766 766 764 764 762 761 760 760 760 760 761 761 757 757 756 755 754 753 752 750 748 745 743 740 737 734 731 728 724 719
795 797 802 810 807 802 794 790 792 785 784 784 783 780 777 775 776 777 774 771 770 770 769 768 766 764 763 761 760 759 758 758 757 757 757 758 756 755 754 752 751 750 749 747 744 743 741 738 735 733 730 727 724 721
797 799 801 804 801 793 786 784 783 783 782 781 775 776 770 771 778 780 779 778 776 772 770 769 767 766 765 763 761 760 758 758 757 757 757 756 755 754 753 752 750 748 747 745 743 741 739 737 734 732 730 729 727 725
794 800 802 803 796 787 787 790 790 789 781 782 769 770 772 773 782 786 787 783 780 776 774 772 770 767 765 764 762 761 761 760 759 758 757 757 756 754 752 751 749 747 745 744 742 740 738 736 734 733 732 731 731 730
806 809 811 808 800 795 795 791 794 793 790 791 785 783 783 782 791 794 791 789 787 783 778 773 770 768 766 765 764 764 763 762 761 760 758 757 756 754 752 750 748 746 744 742 741 740 738 737 736 735 734 734 734 733
Wind_Speed
4 12 29 29 27 24 22 20 18 15 13 11 7 3 2 4 4 3 8 7 3 3 2 4 2 4 2 2 4 3 4 3 3 3 3 4 3 5 2 4 5 5 4 4 1 2 8 5 2 4 6 4 4 5
4 4 19 34 31 28 25 22 20 18 15 13 10 6 3 2 3 5 4 6 6 6 3 2 3 2 2 6 5 0 2 4 5 4 2 3 2 1 4 3 2 4 7 4 8 7 4 5 7 6 2 6 5 2
4 6 7 26 31 33 29 26 23 20 18 16 12 9 5 2 2 3 7 5 4 3 3 3 2 3 8 9 6 4 3 3 2 2 4 2 3 4 4 6 5 4 4 4 2 6 13 8 12 8 3 2 2 6
6 6 7 7 33 32 32 30 27 23 20 18 15 13 9 6 4 3 3 5 6 6 3 5 5 4 3 9 12 10 5 6 7 3 2 3 2 5 4 4 5 5 3 4 7 15 14 13 12 4 5 10 8 4
1 4 7 7 12 35 35 31 30 27 23 21 18 15 12 9 7 4 4 5 5 3 3 3 12 6 6 7 12 12 6 4 2 2 2 3 2 1 2 2 3 5 7 5 10 13 10 6 10 13 13 9 4 7
3 1 9 4 5 23 36 35 31 28 26 23 20 18 15 13 11 4 2 10 13 6 3 2 3 1 2 3 5 8 9 3 3 3 3 3 3 4 3 3 4 13 13 14 15 7 4 9 13 12 4 3 9 8
2 3 6 6 5 4 28 33 32 30 27 24 23 19 17 17 17 5 4 3 17 11 3 2 3 3 3 3 3 2 1 2 3 2 2 3 3 4 1 9 8 11 9 5 4 6 4 2 3 3 4 7 10 15
2 3 4 5 5 5 5 18 34 31 27 27 22 19 18 18 19 6 5 5 21 6 3 2 3 3 2 2 1 3 1 1 1 2 1 1 2 1 3 3 6 5 4 11 11 12 8 7 4 5 12 13 7 8
5 4 6 5 3 1 1 5 11 21 28 26 23 22 17 6 5 5 8 11 15 2 3 2 4 3 2 1 1 2 1 1 1 0 1 2 1 4 4 7 7 7 5 9 9 11 10 8 6 7 8 8 7 7
8 6 3 3 4 3 7 6 11 16 19 26 17 5 1 3 15 12 4 3 2 3 3 2 2 2 2 1 1 1 2 1 2 1 2 2 1 3 6 6 7 10 10 8 6 7 6 6 8 8 8 10 10 10
8 8 6 6 8 6 10 14 19 22 27 3 4 2 8 6 5 5 2 2 0 1 1 1 2 1 3 2 2 1 1 1 1 3 1 1 2 3 1 4 4 6 6 4 3 4 8 9 8 10 10 13 16 18
10 8 7 10 11 13 17 24 28 9 7 9 17 10 4 2 2 3 2 1 2 3 2 2 1 0 1 1 2 0 2 1 4 1 1 2 3 4 4 4 4 1 3 4 5 9 15 15 17 17 17 18 20 26
13 11 9 11 11 8 7 9 6 26 20 8 5 4 2 3 2 4 6 2 2 2 2 2 2 1 1 3 2 1 2 3 1 1 3 3 4 4 4 1 4 7 8 9 12 17 19 20 24 25 20 27 28 26
16 13 11 11 13 11 11 22 20 4 2 3 3 3 2 1 1 3 2 3 1 1 2 2 2 1 1 2 1 2 1 1 1 1 5 1 3 3 2 2 3 6 12 12 14 18 20 22 23 28 28 27 25 24
17 15 14 13 16 17 16 9 5 6 5 3 3 3 2 2 1 1 0 2 1 2 2 2 2 2 1 3 1 2 1 3 4 4 2 3 3 2 3 3 7 6 12 12 18 17 21 24 22 24 30 28 28 29
20 17 14 17 15 15 12 8 6 4 4 3 4 4 1 2 1 1 2 2 1 2 2 3 2 3 2 3 2 5 5 5 3 3 3 1 2 4 5 8 13 17 18 17 18 20 20 22 22 24 31 29 27 26
25 5 19 20 16 15 12 4 3 5 3 3 1 1 3 1 3 3 2 2 7 2 2 3 3 6 2 2 2 4 5 3 4 3 2 3 4 7 12 15 18 20 18 19 20 22 22 25 25 22 17 26 26 26
11 19 23 21 18 14 7 6 4 3 3 1 2 2 1 1 2 1 1 2 3 2 3 2 3 2 4 5 4 3 3 2 2 3 3 5 13 18 17 15 20 20 20 21 22 23 23 20 16 17 21 23 23 20
24 27 25 22 14 6 3 3 4 3 2 1 0 1 2 1 2 1 2 3 3 4 4 2 2 3 4 3 4 3 2 3 3 4 4 12 16 18 19 20 21 22 20 21 19 17 20 21 20 22 24 23 18 19
28 28 23 17 10 4 3 1 2 3 2 2 2 1 2 1 1 1 2 0 2 2 2 4 4 3 4 3 4 3 3 5 2 4 6 4 12 16 18 19 17 19 21 22 20 21 20 19 17 20 22 21 19 17
27 20 17 13 4 7 4 2 3 2 1 2 0 2 1 1 1 0 1 1 2 2 3 4 4 5 13 11 10 14 13 11 6 5 6 7 11 13 18 20 20 19 18 18 15 15 14 17 21 22 21 21 21 19
11 14 7 7 5 4 3 3 3 1 2 1 2 2 2 1 1 2 2 4 4 4 4 4 6 4 5 4 14 17 18 18 18 17 19 21 4 6 10 16 14 14 15 19 19 17 17 19 23 22 21 21 20 18
13 7 5 4 4 5 2 3 4 2 3 2 2 2 2 2 3 1 2 3 4 7 10 9 14 20 16 21 19 22 24 18 12 14 17 18 19 20 21 21 16 11 11 17 17 18 20 22 21 19 21 20 18 13
7 4 3 3 4 1 2 2 2 2 3 2 3 1 3 3 0 1 3 3 4 2 4 10 12 4 6 9 4 12 16 13 15 17 18 18 13 20 23 18 11 12 17 22 23 23 22 21 20 17 20 21 18 15
5 3 5 3 1 3 3 4 1 1 2 2 2 3 3 2 2 2 4 3 3 3 4 8 6 7 4 3 7 15 9 10 13 8 21 21 24 22 20 14 13 15 15 17 19 17 18 19 19 18 20 20 18 19
3 2 4 5 3 4 5 4 4 5 3 3 5 2 2 3 1 6 3 3 3 3 3 4 3 1 2 11 4 7 18 16 11 10 21 19 18 16 8 6 8 11 12 9 15 19 20 19 21 20 20 21 21 20
3 3 3 0 3 3 2 2 2 3 3 5 3 2 3 3 6 4 3 4 3 6 9 11 9 11 9 13 17 22 19 18 17 18 13 11 15 16 17 13 10 10 13 17 18 18 20 20 19 19 20 22 21 21
4 4 7 5 2 1 4 2 4 6 4 3 3 4 7 8 5 3 4 5 9 13 12 13 16 18 16 17 21 20 18 17 12 12 14 15 11 11 9 6 9 10 15 13 13 14 15 16 16 19 18 18 21 21
2 2 4 3 0 1 5 6 5 4 3 4 5 4 5 4 4 3 5 10 13 11 11 13 17 17 19 17 16 15 11 10 8 6 8 3 3 3 8 9 7 10 12 13 12 12 14 12 11 13 15 16 17 17
3 2 3 2 5 5 4 6 4 3 3 4 2 3 4 3 3 11 14 14 11 9 10 10 8 7 7 8 7 4 4 4 2 3 1 2 4 11 11 10 8 10 13 14 14 14 12 13 14 16 16 16 16 16
1 2 2 1 4 4 4 2 4 2 1 3 3 6 12 2 6 20 26 19 14 14 16 17 14 11 13 13 11 9 4 7 6 6 5 5 5 7 8 9 10 11 12 12 11 11 13 14 14 13 11 11 13 14
1 4 4 2 4 4 4 1 2 2 3 1 5 0 4 3 3 4 22 24 20 19 19 19 16 16 13 11 3 6 6 7 8 8 7 8 8 10 11 12 12 11 10 9 9 10 10 10 11 11 10 12 13 14
2 2 2 2 4 5 3 3 3 5 3 2 3 0 1 3 4 5 14 22 19 20 22 22 15 8 8 9 9 9 8 8 7 8 8 9 10 11 12 13 12 11 9 8 8 8 8 9 10 10 11 11 11 11
Wind_Direction
24 218 208 214 212 208 208 208 205 203 201 197 195 181 83 65 81 95 79 58 66 112 259 189 179 126 100 110 140 201 59 354 63 99 142 204 155 222 174 228 194 184 183 210 117 221 279 195 134 181 231 245 285 265
320 8 215 210 213 210 207 208 207 206 203 202 201 194 169 115 91 104 97 76 67 87 199 220 230 198 134 175 135 45 183 164 176 94 179 117 200 134 189 237 150 260 200 192 188 218 241 226 253 260 281 278 274 232
309 300 292 208 209 212 211 209 209 208 207 206 205 204 201 183 104 94 109 94 73 59 339 22 271 256 236 226 219 125 296 180 184 144 150 183 212 128 188 226 210 262 187 230 327 253 263 282 291 296 292 283 63 70
251 280 300 219 209 211 211 211 210 209 207 208 210 208 207 203 182 146 121 115 89 99 104 282 337 291 265 233 231 227 167 131 100 91 142 154 192 189 215 235 203 201 172 239 253 277 283 275 285 322 82 72 62 57
118 252 318 250 228 211 211 210 212 212 210 209 208 210 206 203 199 187 178 186 166 138 190 267 311 287 253 246 240 244 214 119 143 103 137 210 215 130 231 94 211 190 231 249 266 272 263 325 66 72 69 43 351 289
33 334 355 358 258 212 210 213 213 212 212 212 212 212 207 203 199 162 6 225 212 177 97 327 292 258 345 33 236 233 224 172 169 169 213 248 224 166 222 213 233 228 238 244 262 300 88 103 94 85 120 231 274 298
39 31 349 13 48 194 207 207 209 215 215 212 211 210 208 205 195 176 190 199 189 160 96 306 293 340 31 49 58 66 131 186 182 199 203 200 212 182 227 275 277 266 266 289 338 130 129 92 131 200 318 320 331 314
143 121 45 15 36 68 139 197 208 210 212 209 209 207 207 194 198 195 168 130 161 138 118 200 254 349 37 26 39 359 102 26 303 246 40 146 348 127 251 330 337 335 333 59 56 56 74 87 65 20 350 318 309 311
164 136 119 109 88 124 85 148 174 189 196 188 190 177 151 160 154 167 164 159 182 177 190 140 154 210 69 171 125 31 70 355 340 227 241 128 207 223 329 313 358 1 55 114 69 55 46 34 336 295 280 286 282 290
177 175 151 117 96 135 170 174 156 160 154 152 132 93 47 131 126 113 66 44 37 13 5 133 325 149 189 36 3 80 12 145 258 230 312 193 213 83 22 58 71 66 73 59 46 22 337 282 270 285 275 274 265 281
184 178 171 143 123 114 140 156 149 135 144 100 81 95 123 125 76 33 70 110 238 212 171 158 196 96 356 135 172 176 189 169 235 271 255 249 203 153 322 62 77 99 113 139 170 239 271 271 292 295 298 285 293 301
181 168 159 154 145 109 133 149 142 135 134 131 117 110 106 43 73 117 122 98 213 202 166 148 162 154 338 336 106 235 164 143 243 327 74 272 205 151 154 185 216 172 30 352 338 313 308 303 307 307 307 306 302 300
181 173 160 152 160 146 122 152 133 128 118 112 77 77 72 359 89 181 182 224 226 170 168 149 101 79 58 42 69 105 182 227 304 71 232 229 158 165 201 272 345 348 325 302 304 314 315 311 315 311 300 304 305 300
181 171 153 152 154 144 131 136 132 97 81 74 105 91 101 146 207 190 178 145 165 119 127 99 86 102 48 69 92 114 183 208 298 253 237 265 148 183 259 337 340 300 298 297 298 306 305 304 301 309 307 308 305 295
175 167 159 155 150 145 141 144 112 37 57 76 68 145 175 207 91 77 89 87 60 127 105 96 73 77 78 92 160 104 157 242 211 231 221 223 233 286 286 300 288 285 291 297 296 291 293 303 298 299 312 316 312 309
169 158 165 161 152 151 144 119 98 57 59 72 64 96 61 89 154 237 154 132 147 111 94 60 110 65 269 127 136 199 166 224 253 215 222 257 311 286 267 274 283 289 288 285 290 294 297 300 301 303 309 310 316 316
169 133 166 163 154 138 135 94 66 51 96 58 22 67 91 122 180 216 171 169 157 89 168 111 113 208 84 55 248 181 200 213 200 234 222 223 245 263 272 281 289 292 290 290 293 301 302 308 311 311 303 309 308 312
163 161 162 163 156 127 69 46 77 75 77 142 128 212 153 175 141 305 191 180 107 112 125 209 122 102 186 186 252 237 232 255 220 214 218 249 267 273 278 276 283 286 287 295 303 306 306 307 308 307 300 304 305 307
157 156 157 155 148 90 77 41 44 110 196 168 162 129 147 185 248 327 157 153 120 131 114 69 94 210 225 207 202 235 249 215 236 242 230 256 268 272 279 288 292 294 294 296 298 296 300 298 288 295 296 304 298 304
152 152 152 156 139 98 76 71 53 93 171 209 97 113 127 122 81 87 154 64 125 128 179 212 219 216 198 216 194 201 204 215 184 289 289 248 263 277 281 286 283 289 293 297 301 309 307 306 308 302 303 305 300 303
132 126 132 135 74 61 85 103 25 177 152 103 37 115 120 36 112 239 265 169 60 217 235 225 217 230 240 252 248 261 257 235 229 216 256 287 283 276 284 290 296 295 285 286 289 292 299 304 307 305 303 302 298 295
113 126 96 57 73 45 76 31 133 186 83 179 50 47 63 48 234 222 193 193 230 229 214 225 250 250 259 253 255 259 267 272 270 262 264 269 271 271 276 288 290 276 280 282 287 279 289 308 306 301 303 309 309 297
109 96 70 63 73 41 264 5 66 5 100 279 29 41 315 300 228 204 236 233 249 245 232 231 247 252 243 260 270 277 280 270 258 257 264 266 273 277 276 280 286 273 283 298 300 300 301 304 303 302 312 311 306 284
117 74 83 73 77 110 355 89 51 63 39 62 92 297 266 226 137 199 247 241 245 249 209 233 242 247 267 262 250 259 271 274 265 275 279 269 265 270 279 284 290 296 308 303 307 309 312 306 302 304 308 301 293 276
81 352 85 77 83 93 113 167 172 82 218 197 121 283 257 84 159 232 228 260 258 250 258 278 245 216 218 255 276 276 289 252 247 241 282 275 265 275 283 287 306 306 309 301 299 308 309 307 305 297 303 296 282 282
97 214 135 188 154 136 181 153 198 208 157 182 227 276 30 105 115 245 227 228 230 222 233 227 218 230 254 225 236 271 292 298 292 263 288 295 290 262 272 292 304 306 308 301 307 306 301 300 300 298 299 299 291 281
128 177 186 70 132 121 70 42 75 111 164 204 227 149 111 193 237 247 268 227 220 244 286 278 220 202 234 273 289 297 298 298 291 288 288 289 305 294 283 278 295 307 325 321 316 312 302 301 303 302 301 301 296 290
180 169 170 180 205 133 141 126 164 206 227 196 98 179 195 200 230 233 214 241 269 297 287 273 253 267 281 298 302 298 294 293 281 283 292 296 308 296 273 277 310 324 318 324 327 330 330 328 327 328 321 316 311 307
188 171 107 152 320 185 201 190 209 223 196 163 184 229 237 221 239 256 314 320 307 299 291 300 300 307 303 306 297 288 292 282 283 291 296 272 308 306 323 322 327 324 327 327 332 338 340 342 347 359 3 6 9 14
241 149 124 165 169 217 233 184 216 237 211 210 226 309 296 283 38 12 9 1 2 348 328 324 338 341 334 338 327 335 345 338 335 291 232 260 305 320 328 332 333 327 325 325 329 337 345 351 352 353 356 4 14 22
119 90 75 163 227 242 232 282 267 261 253 233 233 246 266 253 97 39 27 20 22 24 20 9 355 360 4 360 350 338 4 23 24 21 17 9 2 357 354 350 343 335 331 334 336 336 344 349 354 2 19 32 41 49
166 198 165 221 269 283 15 80 273 250 276 223 267 133 358 79 73 45 15 13 9 8 355 348 341 333 339 340 19 67 71 55 41 31 23 14 8 2 357 353 347 345 345 340 343 351 0 12 25 42 59 59 57 57
30 36 42 359 335 338 316 32 348 319 334 305 291 324 53 77 91 8 11 24 10 357 345 340 340 1 55 85 68 57 46 36 25 17 13 5 359 357 355 356 359 359 359 359 7 15 28 37 52 59 61 59 55 51